This is the latest recevied weather packets stored in our database for station/object EA6AMI-5. If no packets are shown the sender has not sent any weather packets the latest 1 day(s).
| Time | Temp. | Humidity | Pressure | Rain* | Wind** | Luminosity | Snow |
|---|---|---|---|---|---|---|---|
| 1778000404 | 19.44° C | 73% | 1010.3 hPa | 0 mm | 2.24 m/s, 209° | 115 W/m² | - |
| 1778000044 | 19.44° C | 73% | 1010.6 hPa | 0 mm | 2.24 m/s, 213° | 121 W/m² | - |
| 1777999504 | 18.89° C | 74% | 1010.5 hPa | 0 mm | 2.24 m/s, 209° | 136 W/m² | - |
| 1777998963 | 19.44° C | 74% | 1010.6 hPa | 0 mm | 2.68 m/s, 206° | 74 W/m² | - |
| 1777998423 | 18.89° C | 73% | 1010.5 hPa | 0 mm | 2.68 m/s, 196° | 115 W/m² | - |
| 1777997883 | 19.44° C | 72% | 1010.6 hPa | 0 mm | 2.68 m/s, 195° | 257 W/m² | - |
| 1777997343 | 18.89° C | 73% | 1010.7 hPa | 0 mm | 2.24 m/s, 210° | 181 W/m² | - |
| 1777996803 | 18.89° C | 74% | 1010.6 hPa | 0 mm | 2.68 m/s, 214° | 181 W/m² | - |
| 1777996443 | 18.89° C | 74% | 1010.7 hPa | 0 mm | 2.68 m/s, 208° | 140 W/m² | - |
| 1777995904 | 18.89° C | 74% | 1010.7 hPa | 0 mm | 2.68 m/s, 214° | 161 W/m² | - |
| 1777995364 | 18.89° C | 74% | 1010.7 hPa | 0 mm | 2.68 m/s, 228° | 138 W/m² | - |
| 1777994823 | 18.89° C | 74% | 1010.9 hPa | 0 mm | 2.68 m/s, 205° | 256 W/m² | - |
| 1777994283 | 18.89° C | 74% | 1011 hPa | 0 mm | 2.68 m/s, 204° | 158 W/m² | - |
| 1777993743 | 18.89° C | 75% | 1010.8 hPa | 0 mm | 3.13 m/s, 190° | 135 W/m² | - |
| 1777993203 | 19.44° C | 72% | 1011 hPa | 0 mm | 3.13 m/s, 192° | 115 W/m² | - |
| 1777992843 | 18.89° C | 72% | 1010.7 hPa | 0 mm | 3.13 m/s, 193° | 148 W/m² | - |
| 1777992303 | 19.44° C | 72% | 1010.7 hPa | 0 mm | 2.68 m/s, 208° | 213 W/m² | - |
| 1777991763 | 19.44° C | 71% | 1010.9 hPa | 0 mm | 3.13 m/s, 213° | 135 W/m² | - |
| 1777991223 | 19.44° C | 70% | 1010.9 hPa | 0 mm | 3.13 m/s, 202° | 222 W/m² | - |
| 1777990144 | 20.56° C | 67% | 1010.7 hPa | 0 mm | 2.68 m/s, 194° | 196 W/m² | - |
| 1777989603 | 20.56° C | 66% | 1010.8 hPa | 0 mm | 2.68 m/s, 208° | 181 W/m² | - |
| 1777989243 | 20° C | 65% | 1010.8 hPa | 0 mm | 2.68 m/s, 217° | 604 W/m² | - |
| 1777988703 | 20.56° C | 65% | 1011 hPa | 0 mm | 3.13 m/s, 183° | 429 W/m² | - |
| 1777988163 | 20.56° C | 64% | 1011 hPa | 0 mm | 3.13 m/s, 193° | 331 W/m² | - |
| 1777987623 | 20° C | 65% | 1011.3 hPa | 0 mm | 3.58 m/s, 187° | 834 W/m² | - |
* Rain latest hour (hover to see other rain measurements)
** Current wind speed in m/s (hover to see current wind gust speed)